478  
NZUS99 KSGF 120607  
HRRSGF  
 
HOURLY WEATHER  
NATIONAL WEATHER SERVICE SPRINGFIELD MO  
100 AM CDT FRI AUG 12 2022  
   
.....SGF CWA...
 
 
 
CITY SKY/WX TMP DP RH WIND PRES REMARKS  
SPRINGFIELD CLEAR 70 63 78 CALM 30.14S  
6HR MIN TEMP: 68; 6HR MAX TEMP: 85;  
 
JOPLIN CLEAR 70 63 78 E3 30.13S  
6HR MIN TEMP: 69; 6HR MAX TEMP: 86;  
 
WEST PLAINS CLEAR 67 62 84 CALM 30.16R  
6HR MIN TEMP: 64; 6HR MAX TEMP: 83;  
 
ROLLA N/A N/A N/A N/A MISG 30.15S  
OSAGE BEACH CLEAR N/A N/A N/A CALM N/A  
BRANSON CLEAR 68 63 83 CALM 30.16S  
   
.....SURROUNDING SGF CWA...
 
 
 
CITY SKY/WX TMP DP RH WIND PRES REMARKS  
CHANUTE CLEAR 71 61 70 E5 30.13S  
PARSONS CLEAR 71 60 68 CALM 30.13S  
COFFEYVILLE CLEAR 70 56 61 NE3 30.10S  
EMPORIA CLEAR 66 58 75 S5 30.14S  
GROVE OK CLEAR 66 61 82 CALM 30.13S  
ROGERS AR CLEAR 69 60 73 CALM 30.15S  
SILOAM SPRINGS CLEAR 69 60 73 CALM 30.14R  
   
.....KANSAS AND MISSOURI...
 
 
 
CITY SKY/WX TMP DP RH WIND PRES REMARKS  
KANSAS CTY INT CLEAR 72 62 71 SE6 30.14R  
DOWNTOWN KC CLEAR 77 65 66 E3 30.12S  
COLUMBIA CLEAR 73 66 78 E6 30.14S  
SEDALIA CLEAR 73 66 78 SE5 30.15R  
ST JOSEPH CLEAR 66 66 100 CALM 30.13S  
ST LOUIS MOCLDY 75 66 73 E14 30.15R  
SPIRIT OF STL CLEAR 73 70 90 E5 30.12S  
KIRKSVILLE PTCLDY 72 70 93 E6 30.16S  
WICHITA PTCLDY 74 55 51 E10 30.13R  
TOPEKA CLEAR 70 66 87 CALM 30.13R  
OLATHE CLEAR 71 66 84 CALM 30.14S  
   
.....TENNESSEE...
 
 
 
CITY SKY/WX TMP DP RH WIND PRES REMARKS  
MEMPHIS PTCLDY 79 70 74 NE9 30.06F  
NASHVILLE PTCLDY 75 65 70 N3 30.08S  
   
.....ARKANSAS....
 
 
 
CITY SKY/WX TMP DP RH WIND PRES REMARKS  
FAYETTEVILLE CLEAR 65 63 93 CALM 30.14S  
FT SMITH CLEAR 74 63 68 SE3 30.09R  
LITTLE ROCK PTCLDY 76 64 66 NE6 30.07F  
   
.....OKLAHOMA....
 
 
 
CITY SKY/WX TMP DP RH WIND PRES REMARKS  
TULSA CLEAR 76 59 55 E6 30.08R  
PONCA CITY CLEAR 74 60 61 SE7 30.11R  
MCALESTER CLEAR 73 66 78 SE3 30.08R  
OKLAHOMA CITY CLEAR 78 63 59 SE7 30.10R  
   
.....IOWA.........
 
 
 
CITY SKY/WX TMP DP RH WIND PRES REMARKS  
DES MOINES PTCLDY 71 66 84 SE9 30.16R  
QUAD CITIES CLEAR 63 60 90 E10 30.20R  
   
.....ILLINOIS.....
 
 
 
CITY SKY/WX TMP DP RH WIND PRES REMARKS  
QUINCY CLOUDY 71 64 78 E12 30.16S  
CHICAGO PTCLDY 62 52 69 NW6 30.21S  
 
 
 
CLICK HERE TO GO TO PREVIOUS BULLETINS.

The Nexlab MO Page
The Nexlab KS Page Main Text Page